Regional Weather Roundup
Issued by NWS Jackson, KY

Home | Current Version | Previous Version | Text Only | Print | Product List | Glossary Off
Versions: 1 2 3 4 5 6 7 8 9 10 11 12 13 14 15 16 17 18 19 20 21 22 23 24 25 26 27 28 29 30 31 32 33 34 35 36 37 38 39 40 41 42 43 44 45 46 47 48 49 50

551
ASUS43 KJKL 250810
RWRJKL

EAST KENTUCKY HOURLY WEATHER ROUNDUP
NATIONAL WEATHER SERVICE JACKSON KY
400 AM EDT SAT MAR 25 2017

NOTE: "FAIR" INDICATES FEW OR NO CLOUDS BELOW 12,000 FEET WITH
NO SIGNIFICANT WEATHER AND/OR OBSTRUCTIONS TO VISIBILITY.

* THESE REPORTS ARE NOT UNDER NWS QUALITY CONTROL AND MAY NOT
  REPORT WEATHER SUCH AS PRECIPITATION AND FOG.

KYZ079-080-083-085-087-088-110-112-115-119-120-250900
...EASTERN KENTUCKY...

CITY           SKY/WX    TMP DP  RH WIND       PRES   REMARKS
JACKSON        CLOUDY    62  46  55 SE5       30.19S
LONDON         CLOUDY    59  45  59 SE5       30.17F
SOMERSET*      PTCLDY    59  45  58 CALM      30.17F
MONTICELLO*    MOCLDY    62  48  60 VRB7      30.16F
WILLIAMSBURG*  CLOUDY    59  46  63 SE7       30.17F
MIDDLESBORO*   PTCLDY    51  48  90 CALM      30.21F
HARLAN APT*    PTSUNNY   61  45  55 CALM      30.21R
PIKE CO APT*     N/A     61  48  61 S3        30.21S
BIG SANDY APT* CLOUDY    61  49  65 S3        30.20S
MOREHEAD APT*  CLOUDY    63  46  55 S6        30.19F
ASHLAND*       CLOUDY    43 N/A N/A CALM      30.15F
$$

KYZ035-036-041-042-044-050-067-078-099-250900
...CENTRAL KENTUCKY...

CITY           SKY/WX    TMP DP  RH WIND       PRES   REMARKS
MT STERLING*   CLOUDY    59  46  63 S6        30.18F
FLEMING/MASON* MOCLDY    58  49  72 S5        30.17S
DANVILLE*      MOCLDY    57  46  67 S8        30.15F
LEXINGTON      PTCLDY    58  47  66 SE8       30.14F
FRANKFORT      PTCLDY    58  48  69 SE5       30.11F
LOUISVILLE     CLOUDY    63  48  58 SE9       30.08F
LEBANON*         N/A     61  48  63 SE9       30.12F
GLASGOW*       CLOUDY    62  48  60 S7        30.10F
BOWLING GREEN  MOCLDY    65  50  58 S9        30.07F
$$

KYZ091>093-OHZ055-061-077-WVZ005-015-034-035-042-250900
...SOUTHERN OHIO/WEST VIRGINIA...

CITY           SKY/WX    TMP DP  RH WIND       PRES   REMARKS
COVINGTON      CLOUDY    59  51  75 S8        30.11F
COLUMBUS       CLOUDY    62  52  69 S12       30.10F
DAYTON         MOCLDY    62  51  67 S14       30.09F
WILMINGTON     PTCLDY    58  51  78 S10       30.12S
HUNTINGTON     CLOUDY    64  47  53 S5        30.17F
CHARLESTON     CLOUDY    62  47  57 S3        30.18F
PINEVILLE*     PTCLDY    50  45  83 MISG      30.29S
BECKLEY        PTCLDY    56  45  66 S5        30.24S
BLUEFIELD      CLOUDY    54  44  69 S3        30.26F
LOGAN CO APT*  CLOUDY    63  48  59 CALM      30.21S
$$

VAZ002-007-008-TNZ017-027-036-066-071-250900
...SOUTHWEST VIRGINIA/EAST TENNESSEE...

CITY           SKY/WX    TMP DP  RH WIND       PRES   REMARKS
WISE*          MOCLDY    55  43  62 CALM      30.25F
JONESVILLE*      N/A     52  48  87 CALM      30.24S
ABINGDON*      CLOUDY    54  48  81 CALM      30.25F
BRISTOL        CLOUDY    53  46  77 N3        30.23F
MORRISTOWN*    MOSUNNY   57  48  72 CALM      30.19F
SEVIERVILLE*   SUNNY     52  45  76 NE3       30.17F
LAFOLLETTE*    CLOUDY    54  46  76 CALM      30.22S
OAK RIDGE      MOCLDY    55  46  71 CALM      30.21S
CROSSVILLE     PTCLDY    60  46  59 S8        30.20F
NASHVILLE      MOCLDY    62  51  67 S5        30.09F
$$

...KEY TO REMARKS...
VSB - VISIBILITY IN MILES
WCI - WIND CHILL INDEX
HX  - HEAT INDEX

$$




USA.gov is the U.S. government's official web portal to all federal, state and local government web resources and services.